sat.trackr.live / text

‹ back to catalog

STARLINK-31820

NORAD 59725 · 2024-088T

PAYLOAD ACTIVE UNKNOWN

§ Identity

Operator
Country
US
Launch date
2024-05-10
Launch site
AFWTR
Launch vehicle
Mass (kg)
RCS (m²)

Purposes: comms

External: N2YO · Heavens-Above · Gunter

§ Orbital elements

Epoch: 2026-09-21T13:58:06.463200Z

Period
94.01 min
Inclination
53.1598°
Eccentricity
0.0001159
Mean motion
15.31705436 rev/d
Perigee alt
469.9 km
Apogee alt
471.5 km
Semi-major
6,848.9 km
B*
-1.1466e-5
RAAN
308.6262°
Arg perigee
80.7460°
Mean anomaly
279.3673°
Rev number
13,369

§ Raw data

STARLINK-318201 59725U 24088T   26264.58201925 -.00000721  00000+0 -11466-4 0  99952 59725  53.1598 308.6262 0001159  80.7460 279.3673 15.31705436133693

JSON: /api/v1/satellites/59725 · /tle

For live sub-satellite position, see the globe view (requires WebGL).

§ Visibility from observer

Set your observer location to see the next 7 days of passes ≥ 10°. The values pass through the URL so the page stays shareable.

No JS? Fill the form by hand. The geolocation button needs JavaScript.